STARLINK-2001, 47596

Orbit data source: Space-Track

STARLINK-2001, 47596 is a payload satellite owned by SpaceX/Seattle (US) in LEO that was launched on Thu, 04 Feb 2021 UTC via an FALCON 9 launch vehicle from the Air Force Eastern Test Range (AFETR). Payload-class satellites include a variety of spacecraft equipped with specific instruments for various scientific and technological missions. These include communications satellites like Starlink; space stations such as the ISS; scientific satellites like the Hubble; Earth observation satellites from companies like Planet Labs, Umbra, and HawkEye 360; GPS; miniature CubeSats for education and research; and military/defense satellites.

Loading next visibility...
Identifier
47596, 2021-009BA
Orbit
LEO
Country
Flag of USUS
Related business
Manufacturer
SpaceX/Seattle
Mission
Partially operational Commercial Communications
Bus & Motor
STARLINK, Unknown motor
Mass
260 kg wet, ~248 kg dry
Launch date (UTC)
2021-02-04 (5 years ago)
Launch vehicle
FALCON 9
Launch site
Air Force Eastern Test Range (AFETR)
Object type
Payload
Rocket body
Debris
Shape & HBR
Box + 1 Pan, 10.1 m
Radar Cross Section
13.562 m², Large (>1 m²)

Expand to show TLE details & history
Last TLE update: 2 days ago

TLE from 2 days ago
0 STARLINK-2001
1 47596U 21009BA  26171.50003471  .00516591  00000-0  38027-2 0  9999
2 47596  53.0383 240.2474 0001904  67.6539 151.4187 15.70980925  5994
Epoch: 2026-06-20T12:00Z
TLE epoch observation values (Epoch: 2026-06-20T12:00:02.998Z)
Latitude
-30.45804°
Longitude
-2.37262°
Altitude
366.526 km
Speed
7.689 km/s
True Right ascension
05h 45m 24s
True Declination
-30° 17' 57"
Sunlit
Object was in daylight at epoch
Visualization orbit readout
Latitude
Unknown
Longitude
Unknown
Altitude
Unknown
Speed
Unknown
Apparent Right ascension
Unknown
Apparent Declination
Unknown
Sunlit
N/A
Visualization observer readout
Local Sidereal Time
21:38:39
Azimuth
Unknown
Elevation
Unknown
Doppler factor
Unknown
Orbital elements
Apogee altitude
357.655 km
Perigee altitude
355.091 km
Semi-major axis
6,734.51 km
Eccentricity
0.00019
Inclination
53.0383°
RAAN
240.2474°
Arg. of periapsis
67.6539°
True anomaly
151.42914°
Mean anomaly
151.4187°
Eccentric anomaly
151.42392°
Mean motion
3.92721 °/min
Orbital period
91.67 mins
BSTAR
0.0038027
Loading maneuver chart data...
Computing Atmospheric mass density...

Documentation

Showing up to 5 results
|